Location: Observatory
(52.1446°N, 0.4624°W)
Time: 06:01:41
(UTC+01:00)

ISS - Pass Details

Date: 27 March 2019
Orbit: 408 x 410 km, 51.6° (Epoch: 22 April)

Event Time Altitude Azimuth Distance (km) Brightness Sun altitude
Rises 20:43:18 0° 269° (W) 2,338 0.9 -20.4°
Reaches altitude 10° 20:45:24 10° 269° (W) 1,476 -0.2 -20.6°
Enters shadow 20:48:14 62° 260° (W) 464 -3.5 -21.0°
